• In Austria
  • List of Countries
  • For 7 days
  • Water Temperature
  • Satellite Maps
  • Weather Map
  • News
  • Weather Widgets
  • user-avatar
    Login

    Hourly Weather Biatris

    Today, 25 June, Monday

    Time Temperature Precipitation Wind Pressure Humidity
    00:00 +13°C° 0 mm 2 mps 655 mmHg 56%
    01:00 +13°C° 0 mm 2 mps 655 mmHg 62%
    02:00 +12°C° 0 mm 2 mps 655 mmHg 69%
    03:00 +12°C° 0 mm 2 mps 655 mmHg 74%
    04:00 +11°C° 0 mm 1 mps 654 mmHg 80%
    05:00 +11°C° 0 mm 1 mps 654 mmHg 85%
    06:00 +12°C° 0 mm 1 mps 655 mmHg 80%
    07:00 +13°C° 0 mm 1 mps 655 mmHg 74%
    08:00 +15°C° 0 mm 1 mps 656 mmHg 69%
    09:00 +18°C° 0 mm 1 mps 657 mmHg 57%
    10:00 +21°C° 0 mm 1 mps 657 mmHg 45%
    11:00 +23°C° 0 mm 1 mps 658 mmHg 33%
    12:00 +24°C° 0 mm 2 mps 657 mmHg 29%
    13:00 +25°C° 0 mm 2 mps 657 mmHg 26%
    14:00 +25°C° 0 mm 2 mps 656 mmHg 22%
    15:00 +24°C° 0 mm 2 mps 656 mmHg 23%
    16:00 +23°C° 0 mm 2 mps 656 mmHg 24%
    17:00 +21°C° 0 mm 2 mps 655 mmHg 26%
    18:00 +19°C° 0 mm 2 mps 655 mmHg 29%
    19:00 +17°C° 0 mm 2 mps 655 mmHg 33%
    20:00 +15°C° 0 mm 2 mps 655 mmHg 36%
    21:00 +14°C° 0 mm 2 mps 655 mmHg 39%
    22:00 +14°C° 0 mm 2 mps 656 mmHg 41%
    23:00 +13°C° 0 mm 2 mps 656 mmHg 44%

    Tomorrow, 26 June, Tuesday

    Time Temperature Precipitation Wind Pressure Humidity
    00:00 +12°C° 0 mm 2 mps 656 mmHg 47%
    01:00 +12°C° 0 mm 2 mps 655 mmHg 50%
    02:00 +12°C° 0 mm 1 mps 655 mmHg 53%
    03:00 +11°C° 0 mm 1 mps 655 mmHg 55%
    04:00 +11°C° 0 mm 1 mps 655 mmHg 56%
    05:00 +10°C° 0 mm 1 mps 655 mmHg 58%
    06:00 +12°C° 0 mm 1 mps 656 mmHg 54%
    07:00 +13°C° 0 mm 1 mps 656 mmHg 50%
    08:00 +14°C° 0 mm 1 mps 657 mmHg 46%
    09:00 +17°C° 0 mm 2 mps 658 mmHg 39%
    10:00 +20°C° 0 mm 2 mps 658 mmHg 33%
    11:00 +23°C° 0 mm 2 mps 659 mmHg 26%
    12:00 +24°C° 0 mm 2 mps 658 mmHg 24%
    13:00 +24°C° 0 mm 2 mps 657 mmHg 23%
    14:00 +25°C° 0 mm 2 mps 657 mmHg 21%
    15:00 +24°C° 0 mm 2 mps 656 mmHg 23%
    16:00 +23°C° 0 mm 2 mps 656 mmHg 25%
    17:00 +21°C° 0 mm 2 mps 656 mmHg 27%
    18:00 +19°C° 0 mm 3 mps 656 mmHg 33%
    19:00 +17°C° 0 mm 3 mps 656 mmHg 38%
    20:00 +14°C° 0 mm 3 mps 656 mmHg 44%
    21:00 +13°C° 0 mm 3 mps 656 mmHg 47%
    22:00 +13°C° 0 mm 3 mps 656 mmHg 50%
    23:00 +13°C° 0 mm 2 mps 656 mmHg 53%

    Day after tomorrow, 27 June, Wednesday

    Time Temperature Precipitation Wind Pressure Humidity
    00:00 +12°C° 0 mm 2 mps 656 mmHg 57%
    01:00 +12°C° 0 mm 2 mps 655 mmHg 61%
    02:00 +11°C° 0 mm 1 mps 655 mmHg 64%
    03:00 +11°C° 0 mm 1 mps 655 mmHg 66%
    04:00 +10°C° 0 mm 1 mps 655 mmHg 68%
    05:00 +10°C° 0 mm 1 mps 655 mmHg 70%
    06:00 +11°C° 0 mm 1 mps 655 mmHg 65%
    07:00 +12°C° 0 mm 2 mps 656 mmHg 60%
    08:00 +14°C° 0 mm 2 mps 657 mmHg 56%
    09:00 +16°C° 0 mm 2 mps 657 mmHg 47%
    10:00 +19°C° 0 mm 2 mps 658 mmHg 38%
    11:00 +23°C° 0 mm 1 mps 659 mmHg 30%
    12:00 +24°C° 0 mm 2 mps 658 mmHg 27%
    13:00 +24°C° 0 mm 2 mps 657 mmHg 24%
    14:00 +25°C° 0 mm 2 mps 657 mmHg 21%
    15:00 +24°C° 0 mm 2 mps 656 mmHg 23%
    16:00 +23°C° 0 mm 2 mps 656 mmHg 25%
    17:00 +21°C° 0 mm 2 mps 655 mmHg 27%
    18:00 +19°C° 0 mm 2 mps 655 mmHg 33%
    19:00 +17°C° 0 mm 2 mps 655 mmHg 39%
    20:00 +14°C° 0 mm 3 mps 655 mmHg 45%
    21:00 +14°C° 0 mm 2 mps 655 mmHg 49%
    22:00 +13°C° 0 mm 2 mps 656 mmHg 53%
    23:00 +13°C° 0 mm 2 mps 656 mmHg 57%

    28 June, Thursday

    Time Temperature Precipitation Wind Pressure Humidity
    00:00 +12°C° 0 mm 2 mps 655 mmHg 61%
    01:00 +12°C° 0 mm 2 mps 655 mmHg 66%
    02:00 +10°C° 0 mm 2 mps 654 mmHg 70%
    03:00 +10°C° 0 mm 2 mps 654 mmHg 73%
    04:00 +10°C° 0 mm 2 mps 654 mmHg 76%
    05:00 +9°C° 0 mm 2 mps 654 mmHg 80%
    06:00 +10°C° 0 mm 2 mps 655 mmHg 74%
    07:00 +13°C° 0 mm 2 mps 656 mmHg 69%
    08:00 +14°C° 0 mm 2 mps 656 mmHg 63%
    09:00 +17°C° 0 mm 2 mps 657 mmHg 52%
    10:00 +21°C° 0 mm 1 mps 658 mmHg 40%
    11:00 +24°C° 0 mm 1 mps 658 mmHg 28%
    12:00 +25°C° 0 mm 1 mps 658 mmHg 26%
    13:00 +25°C° 0 mm 2 mps 657 mmHg 23%
    14:00 +26°C° 0 mm 2 mps 656 mmHg 20%
    15:00 +25°C° 0 mm 2 mps 656 mmHg 22%
    16:00 +24°C° 0 mm 2 mps 656 mmHg 25%
    17:00 +22°C° 0 mm 3 mps 656 mmHg 27%
    18:00 +20°C° 0 mm 3 mps 656 mmHg 32%
    19:00 +18°C° 0 mm 3 mps 656 mmHg 38%
    20:00 +16°C° 0 mm 3 mps 656 mmHg 43%
    21:00 +14°C° 0 mm 3 mps 656 mmHg 45%
    22:00 +14°C° 0 mm 3 mps 656 mmHg 47%
    23:00 +13°C° 0 mm 3 mps 656 mmHg 49%

    29 June, Friday

    Time Temperature Precipitation Wind Pressure Humidity
    00:00 +12°C° 0 mm 3 mps 655 mmHg 51%
    01:00 +13°C° 0 mm 2 mps 655 mmHg 53%
    02:00 +12°C° 0 mm 2 mps 655 mmHg 55%
    03:00 +12°C° 0 mm 2 mps 655 mmHg 58%
    04:00 +10°C° 0 mm 2 mps 654 mmHg 61%
    05:00 +10°C° 0 mm 2 mps 654 mmHg 65%
    06:00 +12°C° 0 mm 2 mps 655 mmHg 61%
    07:00 +13°C° 0 mm 2 mps 656 mmHg 57%
    08:00 +15°C° 0 mm 2 mps 656 mmHg 54%
    09:00 +17°C° 0 mm 2 mps 657 mmHg 46%
    10:00 +20°C° 0 mm 2 mps 657 mmHg 39%
    11:00 +23°C° 0 mm 2 mps 658 mmHg 32%
    12:00 +24°C° 0 mm 2 mps 657 mmHg 29%
    13:00 +25°C° 0 mm 2 mps 657 mmHg 27%
    14:00 +26°C° 0 mm 2 mps 656 mmHg 25%
    15:00 +25°C° 0 mm 2 mps 656 mmHg 27%
    16:00 +24°C° 0 mm 2 mps 655 mmHg 29%
    17:00 +23°C° 0 mm 2 mps 655 mmHg 32%
    18:00 +20°C° 0 mm 2 mps 655 mmHg 38%
    19:00 +18°C° 0 mm 2 mps 655 mmHg 44%
    20:00 +16°C° 0 mm 2 mps 655 mmHg 50%
    21:00 +15°C° 0 mm 2 mps 655 mmHg 54%
    22:00 +15°C° 0 mm 2 mps 655 mmHg 58%
    23:00 +14°C° 0 mm 2 mps 655 mmHg 61%

    30 June, Saturday

    Time Temperature Precipitation Wind Pressure Humidity
    00:00 +13°C° 0 mm 2 mps 654 mmHg 65%
    01:00 +13°C° 0 mm 2 mps 654 mmHg 68%
    02:00 +12°C° 0 mm 1 mps 654 mmHg 72%
    03:00 +12°C° 0 mm 1 mps 654 mmHg 75%
    04:00 +12°C° 0 mm 1 mps 654 mmHg 78%
    05:00 +11°C° 0 mm 1 mps 653 mmHg 81%
    06:00 +13°C° 0 mm 1 mps 654 mmHg 75%
    07:00 +14°C° 0 mm 1 mps 655 mmHg 70%
    08:00 +15°C° 0 mm 1 mps 656 mmHg 64%
    09:00 +19°C° 0 mm 1 mps 656 mmHg 53%
    10:00 +22°C° 0 mm 1 mps 657 mmHg 43%
    11:00 +25°C° 0 mm 1 mps 657 mmHg 32%
    12:00 +26°C° 0 mm 2 mps 657 mmHg 28%
    13:00 +26°C° 0 mm 2 mps 656 mmHg 24%
    14:00 +27°C° 0 mm 2 mps 656 mmHg 21%
    15:00 +26°C° 0 mm 2 mps 655 mmHg 22%
    16:00 +25°C° 0 mm 2 mps 655 mmHg 23%
    17:00 +24°C° 0 mm 2 mps 655 mmHg 24%
    18:00 +21°C° 0 mm 3 mps 655 mmHg 27%
    19:00 +19°C° 0 mm 3 mps 655 mmHg 30%
    20:00 +17°C° 0 mm 3 mps 655 mmHg 34%
    21:00 +16°C° 0 mm 3 mps 655 mmHg 35%
    22:00 +14°C° 0 mm 3 mps 655 mmHg 37%
    23:00 +14°C° 0 mm 2 mps 655 mmHg 38%
    Show more